• Processing (Info)

  • MPEC 2019-V132 : 2012 VB37

    The following Minor Planet Electronic Circular may be linked-to from your own Web pages, but must not otherwise be redistributed electronically.

    A form allowing access to any MPEC is at the bottom of this page.


    Read MPEC 2019-V131 Read MPEC 2019-V133


    M.P.E.C. 2019-V132                             Issued 2019 November 9, 02:37 UT
    
         The Minor Planet Electronic Circulars contain information on unusual
             minor planets and routine data on comets.  They are published
        on behalf of Division F of the International Astronomical Union by the
              Minor Planet Center, Smithsonian Astrophysical Observatory,
                              Cambridge, MA 02138, U.S.A.
    
                 Prepared using the Tamkin Foundation Computer Network
    
                                  MPC@CFA.HARVARD.EDU
                URL https://www.minorplanetcenter.net/    ISSN 1523-6714
    
                                    2012 VB37                                
    
    
                               Revision to MPEC 2012-V65                            
    
    Additional Observations:
         K12V37B  C2019 09 25.22673520 04 11.113+01 55 59.05         22.0 GVEV132F51
         K12V37B  C2019 09 25.25175920 04 08.723+01 56 30.43         22.4 GVEV132F51
         K12V37B  C2019 09 25.26429820 04 07.523+01 56 46.12         22.1 GVEV132F51
         K12V37B  C2019 11 06.62436708 01 09.557+38 28 17.17         20.40wUEV132F52
         K12V37B  C2019 11 06.63146208 01 08.025+38 27 11.44         20.48wUEV132F52
         K12V37B  C2019 11 06.63855608 01 06.471+38 26 05.17         20.28wUEV132F52
    
    Observer details:
    F51 Pan-STARRS 1, Haleakala.  Observers J. Bulger, K. Chambers, T. Lowe, E. 
       Magnier, A. Schultz, M. Willman.  Measurers S. Chastel, M. Huber, Y. 
       Ramanjooloo, R. Wainscoat, R. Weryk.  1.8-m Ritchey-Chretien + CCD.
    F52 Pan-STARRS 2, Haleakala.  Observers J. Bulger, T. Dukes, T. Lowe, A. 
       Schultz, M. Willman.  Measurers K. Chambers, S. Chastel, T. de Boer, L. 
       Denneau, J. Fairlamb, H. Flewelling, M. Huber, C.-C. Lin, E. Magnier, Y. 
       Ramanjooloo, R. Wainscoat, R. Weryk.  1.8-m Ritchey-Chretien + CCD.
    
    First and last observations above in comparison with prediction:
    Residuals in seconds of arc (or two decimals in degrees), reference and Delta-T
    190925 F51 1.09+ 1.18+    191106 F52 2.43+ 3.72+    MPO248930   +0.22 days
    
    Orbital elements:
    2012 VB37                                                Earth MOID = 0.0131 AU
    Epoch 2019 Apr. 27.0 TT = JDT 2458600.5                 Veres
    M 256.31392              (2000.0)            P               Q
    n   0.56332415     Peri.  151.88278     +0.82617605     -0.56272720
    a   1.4519906      Node   242.38844     +0.51086762     +0.76900094
    e   0.3135805      Incl.    1.79597     +0.23758663     +0.30327487
    P   1.75           H   25.5           G   0.15           U   0
    Residuals in seconds of arc
    121107 704  0.1-  1.4+    121115 H21  0.2-  0.1-    121122 H21  0.1-  0.1+
    121107 704  0.1+  0.2-    121115 H21  0.3+  0.2+    121122 H21  0.5-  0.1-
    121107 704  0.1+  0.2+    121115 H21  0.1+  0.1+    121207 291  0.8-  0.1-
    121107 704  0.1-  0.6+    121115 H21  0.2-  0.1+    121207 291  0.3-  0.2-
    121107 704  0.9+  1.0+    121116 H21  0.4-  0.0     190925 F51  0.1+  0.1-
    121108 704  0.7+  0.3-    121116 H21  0.4-  0.1-    190925 F51  0.1+  0.0
    121108 704 (1.8+  0.0 )   121116 H21  0.4+  0.3+    190925 F51  0.1+  0.0
    121108 704  1.0+  0.7-    121116 H21  0.1-  0.1+    191106 F52  0.3-  0.1-
    121108 704  1.2+  0.1-    121119 291  0.3-  0.2-    191106 F52  0.1-  0.1+
    121110 J95  0.0   0.6-    121119 291  0.5-  0.6+    191106 F52  0.2-  0.1+
    121110 J95  0.2+  0.4+    121119 291  0.5-  0.1-
    121110 J95  0.5-  0.3-    121122 H21  0.1+  0.1+
    
    Ephemeris:
    2012 VB37                a,e,i = 1.45, 0.31, 2                   q = 0.9967
    Date    TT    R. A. (2000) Decl.     Delta      r    Elong.  Phase     V
    2019 10 10    19 55 01.3 +10 45 50   0.04610 1.0115   104.8    72.7    21.4
    ...
    2019 10 25    19 36 00.4 +58 49 05   0.01671 0.9970    97.6    81.4    19.5
    ...
    2019 11 02    08 10 01.5 +55 59 12   0.02029 0.9977   104.3    74.6    19.6
    ...
    2019 11 08    07 59 43.9 +35 11 32   0.03207 1.0021   109.5    68.8    20.5
    2019 11 09    07 58 51.4 +33 10 52   0.03426 1.0031   110.4    67.8    20.6
    2019 11 10    07 58 03.1 +31 24 50   0.03648 1.0043   111.3    66.7    20.7
    ...
    2019 11 16    07 53 47.4 +24 11 41   0.05014 1.0129   117.2    60.3    21.2
    ...
    2019 11 24    07 47 18.8 +19 13 55   0.06871 1.0292   125.9    51.0    21.6
    ...
    2019 12 09    07 29 44.2 +15 23 32   0.1055  1.0722   144.1    32.6    22.1
    
    A. U. Tomatic                (C) Copyright 2019 MPC           M.P.E.C. 2019-V132
    


    Read MPEC 2019-V131 Read MPEC 2019-V133


    MPEC number:

    Enter an MPEC number in one of the following forms:

    • 1997-B01 (the full form)
    • J97B01 (the packed version of the full form)
    • B01 (the abbreviated form)